DL3NBY Weather Reports


Display with metric or nautical units.
time (UTC)temp
F
wind
direction
speed
MPH
gust
MPH
rain 1hr
in
rain 24hr
in
rain mn
in
humidity
%
barometer
mb
20260508122058 59 90 0.0 2.0 0.00 0.02 0.01 69 1016.8
20260508121217 60 97 1.0 4.0 0.00 0.02 0.01 69 1016.9
20260508120111 58 270 1.0 3.0 0.00 0.02 0.01 69 1016.8
20260508115108 58 0.0 2.0 0.00 0.02 0.01 71 1016.8
20260508114105 59 225 1.0 4.0 0.00 0.02 0.01 70 1016.9
20260508111056 59 103 1.0 4.0 0.00 0.02 0.01 69 1016.9
20260508110052 58 90 0.0 3.0 0.00 0.02 0.01 70 1017.1
20260508105050 57 0.0 2.0 0.00 0.02 0.01 74 1017.0
20260508104046 58 90 0.0 3.0 0.00 0.02 0.01 73 1017.1
20260508103043 58 308 1.0 3.0 0.00 0.02 0.01 71 1017.1
20260508102040 59 90 0.0 2.0 0.00 0.02 0.01 71 1017.1
20260508101036 59 304 1.0 4.0 0.00 0.02 0.01 72 1017.1
20260508095030 57 68 0.0 2.0 0.00 0.02 0.01 71 1017.2
20260508094027 56 120 1.0 4.0 0.00 0.02 0.01 74 1017.2
20260508093024 56 73 1.0 5.0 0.00 0.02 0.01 74 1017.3
20260508092021 55 180 0.0 2.0 0.00 0.02 0.01 78 1017.3
20260508091017 55 5 1.0 4.0 0.00 0.02 0.01 76 1017.3
20260508085134 53 90 0.0 2.0 0.00 0.02 0.01 79 1017.5
20260508083103 53 90 0.0 2.0 0.00 0.02 0.01 80 1017.5
20260508082059 53 90 1.0 3.0 0.00 0.02 0.01 79 1017.5
20260508081056 53 75 0.0 2.0 0.00 0.02 0.01 83 1017.5
20260508080114 52 90 0.0 2.0 0.00 0.02 0.01 82 1017.5
20260508075050 52 0.0 2.0 0.00 0.02 0.01 84 1017.5
20260508074047 52 90 0.0 2.0 0.00 0.02 0.01 82 1017.4
20260508073044 53 135 0.0 2.0 0.00 0.02 0.01 84 1017.4
20260508072040 52 64 1.0 3.0 0.00 0.02 0.01 85 1017.3
20260508071038 52 36 1.0 3.0 0.00 0.02 0.01 88 1017.3
20260508070035 51 74 1.0 3.0 0.00 0.02 0.01 89 1017.0
20260508064048 50 90 0.0 2.0 0.00 0.02 0.01 91 1016.9
20260508063025 49 90 0.0 3.0 0.00 0.02 0.01 92 1016.8
20260508062022 49 90 0.0 2.0 0.00 0.02 0.01 93 1016.6
20260508061018 49 0 0.0 2.0 0.00 0.02 0.01 95 1016.6
20260508060015 48 0.0 2.0 0.00 0.02 0.01 95 1016.6
20260508055113 48 0.0 2.0 0.00 0.02 0.01 96 1016.5
20260508054109 48 0.0 1.0 0.00 0.02 0.01 97 1016.4
20260508053106 47 0.0 1.0 0.00 0.02 0.01 97 1016.3
20260508052103 47 0.0 0.0 0.00 0.02 0.01 98 1016.4
20260508051059 47 0.0 0.0 0.00 0.02 0.01 98 1016.4
20260508044053 47 0.0 0.0 0.00 0.07 0.01 99 1016.0
20260508043047 46 0.0 0.0 0.00 0.08 0.01 99 1016.0
20260508041041 46 0.0 1.0 0.00 0.09 0.01 99 1016.0
20260508040038 46 0.0 1.0 0.00 0.09 0.01 99 1016.0
20260508035038 46 0.0 0.0 0.00 0.09 0.01 99 1015.8
20260508034032 46 0.0 0.0 0.00 0.09 0.01 99 1015.9
20260508033029 46 0.0 0.0 0.00 0.09 0.01 99 1015.8
20260508031103 46 0.0 0.0 0.00 0.09 0.01 99 1015.7
20260508030020 46 0.0 0.0 0.00 0.09 0.01 99 1015.6
20260508025016 47 0.0 0.0 0.00 0.09 0.01 99 1015.6
20260508024113 47 0.0 0.0 0.00 0.09 0.01 99 1015.7
20260508023110 47 0.0 0.0 0.00 0.09 0.01 99 1015.7
20260508021104 47 0.0 0.0 0.00 0.11 0.01 99 1015.7
20260508020121 47 0.0 0.0 0.00 0.13 0.01 99 1015.7
20260508015057 47 0.0 0.0 0.00 0.13 0.01 99 1015.8
20260508014054 47 0.0 0.0 0.00 0.13 0.01 99 1015.8
20260508013051 47 0.0 0.0 0.00 0.14 0.01 99 1015.9
20260508011044 47 0.0 0.0 0.00 0.15 0.01 99 1015.8
20260508010041 47 0.0 0.0 0.00 0.17 0.01 99 1015.9
20260508004035 47 0.0 0.0 0.00 0.19 0.01 99 1015.9
20260508003032 47 0.0 0.0 0.00 0.20 0.01 99 1015.9
20260508002028 47 0.0 0.0 0.01 0.20 0.01 99 1016.0
20260507235019 46 0.0 0.0 0.01 0.21 0.01 99 1016.0
20260507232110 47 0.0 0.0 0.00 0.20 0.00 99 1016.0
20260507225100 47 0.0 0.0 0.00 0.20 0.00 99 1016.0
20260507224057 47 0.0 0.0 0.00 0.20 0.00 99 1015.9
20260507223114 47 0.0 0.0 0.00 0.20 0.00 99 1015.8
20260507222051 47 0.0 0.0 0.00 0.20 0.00 99 1015.9
20260507221047 47 0.0 1.0 0.00 0.20 0.00 99 1015.9
20260507220045 47 0.0 0.0 0.00 0.20 0.00 99 1015.8
20260507215042 47 0.0 0.0 0.00 0.20 0.20 99 1015.8
20260507214038 47 0.0 0.0 0.00 0.20 0.20 99 1015.8
20260507213035 48 0.0 0.0 0.00 0.20 0.20 99 1015.6
20260507212032 48 0.0 0.0 0.00 0.20 0.20 99 1015.7
20260507211029 48 0.0 2.0 0.00 0.20 0.20 99 1015.7
20260507210026 48 0.0 0.0 0.00 0.20 0.20 99 1015.7
20260507205022 48 0.0 2.0 0.00 0.20 0.20 99 1015.8
20260507204019 48 0.0 0.0 0.00 0.20 0.20 99 1015.6
20260507203016 48 0.0 2.0 0.00 0.20 0.20 99 1015.6
20260507201110 49 27 0.0 3.0 0.00 0.20 0.20 99 1015.3
20260507200106 49 68 0.0 3.0 0.00 0.20 0.20 99 1015.2
20260507192054 49 0.0 0.0 0.00 0.20 0.20 99 1014.8
20260507191050 49 0.0 0.0 0.00 0.20 0.20 99 1014.6
20260507190047 49 0.0 0.0 0.00 0.20 0.20 99 1014.4
20260507185044 49 0.0 0.0 0.00 0.20 0.20 99 1014.4
20260507184101 49 0.0 0.0 0.00 0.20 0.20 99 1014.3
20260507183038 49 0.0 0.0 0.01 0.20 0.20 99 1014.3
20260507182034 50 0.0 0.0 0.01 0.20 0.20 98 1014.2
20260507181031 51 0.0 0.0 0.01 0.20 0.20 98 1014.2
20260507180052 51 337 0.0 3.0 0.01 0.20 0.20 98 1014.0
20260507175045 51 270 0.0 2.0 0.01 0.20 0.20 98 1013.9
20260507174022 51 0.0 2.0 0.01 0.20 0.20 97 1013.9
20260507172016 52 0.0 1.0 0.00 0.19 0.19 96 1013.7
20260507170110 52 293 0.0 3.0 0.00 0.19 0.19 95 1013.5
20260507165106 52 135 1.0 4.0 0.00 0.19 0.19 95 1013.5
20260507164104 53 240 1.0 4.0 0.00 0.19 0.19 94 1013.5
20260507163100 53 247 1.0 3.0 0.00 0.19 0.19 94 1013.5
20260507162057 53 240 0.0 3.0 0.00 0.19 0.19 93 1013.5
20260507160051 52 211 1.0 5.0 0.00 0.19 0.19 95 1013.4
20260507155047 52 244 1.0 4.0 0.00 0.19 0.19 95 1013.4
20260507154044 51 0.0 3.0 0.00 0.19 0.19 97 1013.4
20260507153041 52 276 1.0 4.0 0.00 0.19 0.19 97 1013.3
20260507151035 52 355 1.0 6.0 0.00 0.19 0.19 93 1013.3
20260507150032 52 218 1.0 6.0 0.00 0.19 0.19 94 1013.3
20260507145027 51 267 1.0 4.0 0.00 0.19 0.19 95 1013.3
20260507143021 51 199 1.0 4.0 0.00 0.19 0.19 95 1013.3
20260507142018 51 279 1.0 4.0 0.00 0.19 0.19 95 1013.3
20260507141015 51 250 2.0 6.0 0.00 0.19 0.19 95 1013.2
20260507140112 51 255 1.0 6.0 0.00 0.19 0.19 95 1013.2
20260507134105 51 315 1.0 4.0 0.00 0.19 0.19 97 1013.1
20260507133103 51 250 1.0 7.0 0.00 0.19 0.19 96 1013.1
20260507132119 51 263 1.0 4.0 0.00 0.19 0.19 97 1013.0
20260507131056 51 225 2.0 8.0 0.00 0.19 0.19 97 1013.0
20260507130053 51 228 1.0 3.0 0.00 0.19 0.19 96 1012.9
20260507125050 51 270 0.0 4.0 0.00 0.19 0.19 96 1012.9
20260507124107 51 232 1.0 4.0 0.00 0.19 0.19 96 1012.8
20260507123043 52 245 2.0 8.0 0.00 0.19 0.19 94 1012.7